Вернуться в каталог

STARLINK-35344

АктивенСвязьSSO
NORAD 65656·PAYLOAD·🇺🇸 United States

Запущен Sep 19, 2025 с Vandenberg Space Force Base

Loading…

Ближайшие Пролёты (ближайшие 24 часа)

TLE

СвежийSource: CelesTrak SupGP

Эпоха: Sep 14, 2026, 21:24 UTC

1 65656C 25211E   26257.89215278  .00003174  00000+0  98518-4 0  2579
2 65656  97.2820 298.2576 0001077 116.7135  29.3565 15.33436333    11

Отслеживайте STARLINK-35344 в реальном времени с AllMySat

Download on the App Store